Weather History for Springfield, CO

Change the Weather History Date:

Thursday, November 29, 2012

  Actual Average Record
Temperature  
Mean Temperature 50 °F -  
Max Temperature 70 °F 51 °F 70 °F (2003)
Min Temperature 30 °F 21 °F 7 °F (2004)
Degree Days  
Heating Degree Days 15 29  
Month to date heating degree days 513 671  
Since 1 July heating degree days 960 1116  
Cooling Degree Days 0 0  
Month to date cooling degree days 0 0  
Year to date cooling degree days 1422 1028  
Growing Degree Days 2 (Base 50)    
Moisture  
Dew Point 14 °F    
Average Humidity 27    
Maximum Humidity 41    
Minimum Humidity 12    
Precipitation  
Precipitation 0.00 in 0.01 in 0.12 in (2006)
Month to date precipitation 0.00 0.57  
Year to date precipitation 8.07 17.03  
Sea Level Pressure  
Sea Level Pressure 29.95 in    
Wind  
Wind Speed 10 mph (NW)    
Max Wind Speed 23 mph    
Max Gust Speed 29 mph    
T = Trace of Precipitation, MM = Missing Value Source: NWS Daily Summary

Daily Weather History Graph

Daily Weather History Graph

Search for Another Location

Airport:

Trip Planner

Search our weather history database for the weather conditions in past years. The results will help you decide how hot, cold, wet, or windy it might be!

Date:

Astronomy

Nov. 29, 2012 Rise Set
Actual Time 6:44 AM MST 4:33 PM MST
Civil Twilight 6:15 AM MST 5:02 PM MST
Nautical Twilight 5:43 AM MST 5:34 PM MST
Astronomical Twilight 5:12 AM MST 6:05 PM MST
Moon 5:38 PM MST (11/29) 7:32 AM MST (11/29)
Length of Visible Light 10h 46m
Length of Day
9h 48m
Full, 99% of the Moon is Illuminated
Nov 29
Full
Dec 6
Last Quarter
Dec 13
New
Dec 19
First Quarter
Dec 28
Full

Hourly Weather History & Observations

Time (MST) Temp. Windchill Dew Point Humidity Pressure Visibility Wind Dir Wind Speed Gust Speed Precip Events Conditions
12:56 AM 36.0 °F 28.5 °F 7.0 °F 30% 29.95 in - WNW 10.4 mph - N/A   Unknown
1:56 AM 39.9 °F 32.5 °F 7.0 °F 26% 29.93 in - NW 12.7 mph - N/A   Unknown
2:56 AM 39.0 °F 30.6 °F 10.0 °F 30% 29.92 in - NW 15.0 mph - N/A   Unknown
3:56 AM 37.0 °F 29.3 °F 10.0 °F 33% 29.94 in - NW 11.5 mph - N/A   Unknown
4:56 AM 37.0 °F 28.1 °F 12.0 °F 36% 29.96 in - NW 15.0 mph - N/A   Unknown
5:56 AM 37.0 °F 30.4 °F 10.9 °F 34% 29.97 in - WNW 9.2 mph - N/A   Unknown
6:56 AM 37.0 °F 31.6 °F 10.9 °F 34% 30.00 in - West 6.9 mph - N/A   Unknown
7:56 AM 50.0 °F - 14.0 °F 24% 29.98 in - NW 15.0 mph - N/A   Unknown
8:56 AM 59.0 °F - 16.0 °F 19% 29.96 in - NW 18.4 mph 24.2 mph N/A   Unknown
9:56 AM 63.0 °F - 15.1 °F 16% 29.96 in - NNW 19.6 mph 25.3 mph N/A   Unknown
10:56 AM 66.0 °F - 18.0 °F 16% 29.94 in - NW 12.7 mph - N/A   Unknown
11:56 AM 69.1 °F - 19.9 °F 15% 29.90 in - NNW 16.1 mph 26.5 mph N/A   Unknown
12:56 PM 70.0 °F - 19.0 °F 14% 29.88 in - NNW 18.4 mph 21.9 mph N/A   Unknown
1:56 PM 70.0 °F - 17.1 °F 13% 29.86 in - NW 8.1 mph - N/A   Unknown
2:56 PM 69.1 °F - 15.1 °F 13% 29.87 in - NNW 10.4 mph - N/A   Unknown
3:56 PM 64.0 °F - 16.0 °F 16% 29.90 in - North 4.6 mph - N/A   Unknown
4:56 PM 52.0 °F - 16.0 °F 24% 29.95 in - NE 6.9 mph - N/A   Unknown
5:56 PM 46.0 °F - 15.1 °F 29% 29.99 in - Calm Calm - N/A   Unknown
6:56 PM 42.1 °F 40.2 °F 14.0 °F 32% 30.01 in - SW 3.5 mph - N/A   Unknown
7:56 PM 37.9 °F 35.5 °F 12.9 °F 36% 30.00 in - WSW 3.5 mph - N/A   Unknown
8:56 PM 34.0 °F 28.8 °F 12.9 °F 42% 29.98 in - WSW 5.8 mph - N/A   Unknown
9:56 PM 36.0 °F 32.1 °F 14.0 °F 41% 29.97 in - West 4.6 mph - N/A   Unknown
10:56 PM 37.0 °F 31.0 °F 14.0 °F 39% 29.96 in - NW 8.1 mph - N/A   Unknown
11:56 PM 33.1 °F 26.1 °F 14.0 °F 46% 29.95 in - NW 8.1 mph - N/A   Unknown